Погода в Лаукуве

Погода в Лаукуве : погода сейчас, прогноз погоды и архив. Всё, что Вы хотите узнать о погоде в Лаукуве!

Поиск расширенной информации на нашем сайте:

Другие новости

Новости СМИ2

Главная страница сайта

Новости сайта

02.10.2013

Напоминаем, что на нашем новом сайте вы можете получить высокодетализированные прогнозы погоды по пунктам России, СНГ и мира (включающие важные для авиации метеовеличины, такие как направление и скорость ветра, видимость, явления погоды, количество и форма облачности, нижняя и верхняя граница облачности), а также ознакомиться с разнообразными материалами по авиационной метеорологии и подборкой полезных ссылок на эту тему.

Сайт Метеоцентр.Азия посвящён разработке технологий оптимизации авиаметеорологического обслуживания, включая проектирование и перспективное создание нескольких автоматизированных авиаметеорологических систем:
- система выпуска высокодетальных прогностических карт явлений погоды для нижнего воздушного пространства по России и ближнему зарубежью;
- система верификации прогнозов TAF (выпускаемых синоптиками официальных АМСГ РФ и ближнего зарубежья) и AUTOTAF (выпускаемых сайтом Метеоцентр.Азия) - выявление ошибок, онлайн-сопоставление с фактической погодой METAR, автоматическое внесение коррективов в прогнозы при резком отклонении фактической погоды от прогноза, подсчёт оправдываемости прогнозов по элементам и в целом;
- система обработки, анализа и отображения авиаметеорологической информации для применения провайдерами метеорологической информации.


Погода в Лаукуве - сегодня

Время (UTC), дата Ветер
(°,м/с) 
Видим.   Явления Облачность Т
(°С)
Тd
(°С)
f(%) Тe
(°С)
Pmin
(гПа)
dP
(гПа)
Po
(мм)
O2
(г/м3)
Тmin Tmax R s Состояние
почвы
18 18.01.17 220 (ЮЗ) 5-8{10}  3300 м  слаб. снег{дождь} [диам. гололёда 1 мм]  10/10 100 м 
[Frnb|Ns]
-1.8 -2.1 98 -5  1034.9  -1  760  308    -1.7  0.0  23   
21 18.01.17 220 (ЮЗ) 5-8{11}  2800 м  в посл. час снег [диам. гололёда 1 мм]  10/10 100 м 
[Frnb|Ns]
-2 -2.3 98 -5  1033.8  -0.9  759  308           
00 19.01.17 220 (ЮЗ) 5-8{10}  1900 м  в посл. час снег [диам. гололёда 1 мм]  10/10 60 м 
[St]
-1.9 -1.9 100 -5  1032.6  -1.1  758  308      0.0  23   
03 19.01.17 220 (ЮЗ) 6-10{10}  1400 м  слаб. снег [диам. гололёда 1 мм]  10/10 60 м 
[Frnb|Ns]
-2.3 -2.6 98 -6  1031.3  -1.3  757  307           
06 19.01.17 230 (ЮЗ) 6-9{10}  1900 м  слаб. переохл. дождь (гололёд){снег} [диам. гололёда 2 мм]  10/10 60 м 
[Frnb|Ns]
-1.8 -2.1 98 -6  1029.3  -2  756  306  -2.3    0.0  23  неравномерный
сухой снег
100% 
09 19.01.17 230 (ЮЗ) 4-7{09}  1800 м  слаб. переохл. морось (гололёд){дождь} [диам. гололёда 4 мм]  10/10 60 м 
[St]
-0.9 -0.9 100 -3  1029.7  0.5  756  305           
12 19.01.17 230 (ЮЗ) 5-7{08}  2300 м  слаб. переохл. дождь (гололёд){морось} [диам. гололёда 5 мм]  10/10 60 м 
[Frnb|Ns]
-0.2 -0.2 100 -3  1028.1  -1.5  755  305      0.0  23   
15 19.01.17 240 (ЮЗ) 4-7{07}  0700 м  слаб. дождь{туман} [диам. гололёда 6 мм]  ?/?  
+0.1 +0.1 100 -2  1027.4  -0.7  755  303           
18 19.01.17 240 (ЮЗ) 4-5{07}  0300 м  слаб. дождь{туман}  ?/?  
+0.7 +0.7 100 -2  1026.6  -0.7  754  302    +0.8  23   
21 19.01.17 270 (З) 5-8{11}  1500 м  слаб. дождь{туман}  10/10 100 м 
[Frnb|Ns]
+2.3 +2.1 99 1025.6  -0.9  754  300           
00 20.01.17 260 (З) 4-6{10}  0200 м  слаб. дождь{туман}  ?/?  
+2.3 +2.3 100 1025.6  754  301      22   
03 20.01.17 250 (З) 3-4{07}  0100 м  слаб. морось{дождь}  ?/?  
+2.2 +2.2 100 +1  1025.9  0.3  754  300           
06 20.01.17 260 (З) 3-5{06}  0200 м  слаб. морось{дождь}  ?/?  
+2.1 +2.1 100 +1  1025.9  754  300  +0.7    15  неравномерный
мокрый или
старый снег
100% 
09 20.01.17 260 (З) 4-7{07}  0300 м  слаб. дождь{морось}  ?/?  
+2.6 +2.6 100 +1  1026.3  0.4  754  300           
12 20.01.17 260 (З) 4-7{07}  0300 м  слаб. морось{дождь}  ?/?  
+2.8 +2.8 100 +1  1024.7  -1.5  753  300      0.0  13   
15 20.01.17 260 (З) 6-9{11}  2400 м  слаб. дождь{морось}  10/10 100 м 
[Frnb|Ns]
+1.9 +1.9 100 -1  1023.8  -1  752  300           
18 20.01.17 280 (З) 6-8{10}  1700 м  слаб. дождь{морось}  10/10 100 м 
[Frnb|Ns]
+1.6 +1.3 98 -2  1022.7  -1.1  751  300    +2.9  0.4  10   
21 20.01.17 280 (З) 5-8{09}  0200 м  слаб. дождь{морось}  ?/?  
+2.1 +1.8 98 -1  1023  0.4  752  300           
00 21.01.17 300 (СЗ) 2-3{08}  0200 м  слаб. дождь{морось}  ?/?  
+1.7 +1.7 100 +1  1024.1  752  301      0.3   
03 21.01.17 290 (З) 3-5{07}  0200 м  слаб. дождь{туман}  ?/?  
+1.1 +1.1 100 1024.5  0.4  753  301           
06 21.01.17 290 (З) 3-5{06}  0200 м  слаб. дождь{туман}  ?/?  
+0.7 +0.7 100 -1  1025.5  0.9  753  302  +0.6    0.3  неравномерный
мокрый или
старый снег
100% 
09 21.01.17 300 (СЗ) 3-5{06}  0300 м  туман{дождь}  ?/?  
+0.6 +0.6 100 -1  1027.9  2.4  755  303           
12 21.01.17 280 (З) 2-3{05}  0200 м  туман{дождь}  ?/?  
+1.1 +0.8 98 1028.4  0.5  756  303      0.0   
15 21.01.17 260 (З) 1-2{03}  20000 м  {туман}  8/8 1230 м 
[Sc]
+2.8 +2.5 98 +4  1029.2  0.9  756  300           
18 21.01.17 250 (З) 2-3{04}  0200 м  туман  ?/?  
+0.2 -0.1 98 -1  1030.6  1.2  757  304    +3  0.0   
Время (UTC), дата Ветер
(°,м/с) 
Видим.   Явления Облачность Т
(°С)
Тd
(°С)
f(%) Тe
(°С)
Pmin
(гПа)
dP
(гПа)
Po
(мм)
O2
(г/м3)
Тmin Tmax R s Состояние
почвы

Для получения пояснительной информации подведите курсор к названию столбца.

ПОГОДА в Лаукуве - архив

Всё, что Вы хотите узнать о погоде в Лаукуве - удобно и подробно!

Выберите нужную дату (начиная с 1 января 2015* года) и нажмите кнопку "Найти".
Будут отображены архивные сводки погоды по пункту Лаукува, начиная с указанной даты.


Отображать данные в формате CSV (для использования в таблицах Excel)


Внимание! Наш архив погоды предназначен исключительно для личного некоммерческого использования в познавательных целях. Если Вам необходимы официальные справки о состоянии погоды (для производственных, юридических, коммерческих и т.п. целей), обращайтесь в органы Росгидромета.

*Примечание: данная дата относится к архиву по метеостанциям СССР (Россия, СНГ, Балтия).
Архив по метеостанциям Зарубежной Европы и Азии (кроме Китая) хранится 10 дней, по другим регионам земного шара (Китай, Африка, Америка, Австралия, Океания) - 1 день.

Лаукува - район местоположения метеостанции


Название, широта, долгота, высота метеостанции:
Лаукува 55.6°ш. 22.2°д. 166 м над ур. моря [Литва]

Дополнительная информация

В oтличие oт бoльшинства пoгoдных сайтoв мы публикуем пoдрoбную метеoинфoрмацию в детальнoм прoфессиoнальнoм фoрмате.

Характеристики температуры и влажнoсти вoздуха измеряются на высoте 2 м в тени вдали oт зданий и деревьев.
Скoрoсть ветра измеряется на высoте 10 м (на урoвне рoста челoвека скoрoсть ветра ниже в 1.5-2 раза). Если метеoстанция нахoдится в гoрoде или в лесу, тo скoрoсть ветра занижена на 2-4 м/с пo сравнению с oткрытым местoм. Скoрoсть ветра над акватoриями крупных рек и oзёр, а также на вершинах хoлмoв на 2-5 м/с выше, чем в oбычных услoвиях.
Атмoсфернoе давление в разных тoчках местнoсти мoжет значительнo oтличаться oт давления на метеoстанции, в зависимoсти oт услoвий рельефа (при пoдъёме на 10 м давление пoнижается примернo на 1 мм рт.ст.).